TimeMST,TemperatureF,Dew PointF,Humidity,Sea Level PressureIn,VisibilityMPH,Wind Direction,Wind SpeedMPH,Gust SpeedMPH,PrecipitationIn,Events,Conditions,WindDirDegrees,DateUTC
12:53 AM,10.9,6.1,81,30.53,10.0,SSE,9.2,-,N/A,,Clear,160,2013-01-09 07:53:00
1:53 AM,12.0,7.0,80,30.51,10.0,SSE,4.6,-,N/A,,Clear,160,2013-01-09 08:53:00
2:53 AM,12.0,7.0,80,30.52,10.0,SE,4.6,-,N/A,,Clear,140,2013-01-09 09:53:00
3:53 AM,8.1,5.0,87,30.53,10.0,SE,4.6,-,N/A,,Clear,140,2013-01-09 10:53:00
4:53 AM,5.0,1.9,87,30.56,10.0,SSE,5.8,-,N/A,,Clear,160,2013-01-09 11:53:00
5:53 AM,7.0,1.9,80,30.56,10.0,SE,9.2,-,N/A,,Clear,140,2013-01-09 12:53:00
6:53 AM,10.0,5.0,80,30.56,10.0,South,5.8,-,N/A,,Clear,170,2013-01-09 13:53:00
8:53 AM,14.0,8.1,77,30.60,10.0,South,4.6,-,N/A,,Clear,180,2013-01-09 15:53:00
9:53 AM,21.9,12.9,68,30.55,10.0,South,3.5,-,N/A,,Clear,180,2013-01-09 16:53:00
10:53 AM,24.1,15.1,69,30.53,10.0,NW,4.6,-,N/A,,Clear,320,2013-01-09 17:53:00
11:53 AM,27.0,16.0,63,30.47,10.0,NW,3.5,-,N/A,,Clear,320,2013-01-09 18:53:00
12:53 PM,30.0,15.1,54,30.42,10.0,Calm,Calm,-,N/A,,Clear,0,2013-01-09 19:53:00
1:53 PM,34.0,16.0,48,30.38,10.0,SSE,3.5,-,N/A,,Clear,160,2013-01-09 20:53:00
2:53 PM,39.0,14.0,36,30.33,10.0,Calm,Calm,-,N/A,,Clear,0,2013-01-09 21:53:00
3:53 PM,34.0,18.0,52,30.36,10.0,North,6.9,-,N/A,,Clear,350,2013-01-09 22:53:00
4:53 PM,30.0,18.0,61,30.39,10.0,Calm,Calm,-,N/A,,Clear,0,2013-01-09 23:53:00
5:53 PM,21.9,15.1,75,30.40,10.0,SSE,3.5,-,N/A,,Clear,150,2013-01-10 00:53:00
6:53 PM,18.0,12.0,78,30.38,10.0,South,6.9,-,N/A,,Clear,170,2013-01-10 01:53:00
7:53 PM,16.0,12.0,84,30.38,7.0,Calm,Calm,-,N/A,,Clear,0,2013-01-10 02:53:00
8:53 PM,15.1,10.0,80,30.35,9.0,SE,5.8,-,N/A,,Clear,130,2013-01-10 03:53:00
9:53 PM,10.9,7.0,84,30.31,10.0,SSE,6.9,-,N/A,,Clear,150,2013-01-10 04:53:00
10:53 PM,10.0,7.0,87,30.28,10.0,SE,9.2,-,N/A,,Clear,140,2013-01-10 05:53:00
11:53 PM,12.9,9.0,84,30.22,10.0,SSE,8.1,-,N/A,,Clear,160,2013-01-10 06:53:00